Port Lavaca, TX

1:13 AM CDT on September 27, 2016 (GMT -0500)
Port Lavaca

Weather History for KPKV - September, 2013

Change the Weather History Date:

Monday, September 16, 2013

  Actual Average (KVCT) Record (KVCT)
Temperature  
Mean Temperature 82 °F 80 °F  
Max Temperature 88 °F 90 °F 100 °F (1954)
Min Temperature 77 °F 69 °F 55 °F (1945)
Degree Days  
Heating Degree Days 0 0  
Month to date heating degree days 0  
Since 1 July heating degree days 0  
Cooling Degree Days 18 15  
Month to date cooling degree days 264  
Year to date cooling degree days 2617  
Growing Degree Days 32 (Base 50)    
Moisture  
Dew Point 75 °F    
Average Humidity 78    
Maximum Humidity 90    
Minimum Humidity 64    
Precipitation  
Precipitation 0.00 in 0.14 in 2.29 in (1998)
Month to date precipitation 2.39  
Year to date precipitation 29.26  
Snow  
Snow 0.00 in - - ()
Month to date snowfall  
Since 1 July snowfall  
Since 1 September snowfall  
Snow Depth -    
Sea Level Pressure  
Sea Level Pressure 29.96 in    
Wind  
Wind Speed 12 mph (East)    
Max Wind Speed 21 mph    
Max Gust Speed 26 mph    
Visibility 10 miles    
Events      
T = Trace of Precipitation, MM = Missing Value Source: NWS Daily Summary

Daily Weather History Graph

Daily Weather History Graph

Search for Another Location

Airport or City:

Trip Planner

Search our weather history database for the weather conditions in past years. The results will help you decide how hot, cold, wet, or windy it might be!

Date:

Astronomy

Sep. 16, 2013 Rise Set
Actual Time 7:12 AM CDT 7:30 PM CDT
Civil Twilight 6:48 AM CDT 7:53 PM CDT
Nautical Twilight 6:21 AM CDT 8:21 PM CDT
Astronomical Twilight 5:53 AM CDT 8:49 PM CDT
Moon 5:30 PM CDT (9/16) 4:11 AM CDT (9/16)
Length of Visible Light 13h 05m
Length of Day
12h 17m
Waxing Gibbous, 90% of the Moon is Illuminated
Sep 16
Waxing Gibbous
Sep 19
Full
Sep 26
Last Quarter
Oct 4
New
Oct 11
First Quarter

Hourly Weather History & Observations

Time (CDT) Temp. Heat Index Dew Point Humidity Pressure Visibility Wind Dir Wind Speed Gust Speed Precip Events Conditions
12:15 AM 79.7 °F - 75.6 °F 87% 29.96 in 10.0 mi ENE 9.2 mph - N/A   Scattered Clouds
12:35 AM 79.9 °F - 75.4 °F 86% 29.95 in 10.0 mi ENE 9.2 mph - N/A   Clear
12:55 AM 79.9 °F - 75.4 °F 86% 29.95 in 10.0 mi ENE 10.4 mph - N/A   Clear
1:15 AM 79.3 °F - 74.3 °F 84% 29.95 in 10.0 mi ENE 11.5 mph - N/A   Scattered Clouds
1:35 AM 79.5 °F - 75.2 °F 87% 29.95 in 10.0 mi ENE 11.5 mph - N/A   Clear
1:55 AM 79.0 °F - 75.2 °F 88% 29.95 in 10.0 mi ENE 11.5 mph 16.1 mph N/A   Clear
2:15 AM 79.0 °F - 74.8 °F 87% 29.94 in 10.0 mi ENE 9.2 mph - N/A   Clear
2:35 AM 79.0 °F - 74.3 °F 85% 29.94 in 10.0 mi East 9.2 mph - N/A   Clear
2:55 AM 79.3 °F - 75.0 °F 87% 29.94 in 10.0 mi East 16.1 mph 19.6 mph N/A   Scattered Clouds
3:15 AM 78.3 °F - 75.0 °F 90% 29.93 in 10.0 mi ENE 10.4 mph - N/A   Clear
3:35 AM 77.9 °F - 74.7 °F 90% 29.93 in 10.0 mi ENE 13.8 mph 20.7 mph N/A   Clear
3:55 AM 78.1 °F - 73.8 °F 86% 29.93 in 10.0 mi East 11.5 mph - N/A   Clear
4:15 AM 78.1 °F - 73.8 °F 86% 29.93 in 10.0 mi East 12.7 mph - N/A   Clear
4:35 AM 78.8 °F - 74.5 °F 87% 29.92 in 10.0 mi ENE 11.5 mph - N/A   Clear
4:55 AM 78.3 °F - 74.3 °F 88% 29.92 in 10.0 mi ENE 9.2 mph - N/A   Clear
5:15 AM 78.3 °F - 74.5 °F 88% 29.92 in 10.0 mi ENE 9.2 mph - N/A   Clear
5:35 AM 78.6 °F - 74.5 °F 87% 29.92 in 10.0 mi ENE 9.2 mph - N/A   Clear
5:55 AM 77.9 °F - 74.3 °F 89% 29.91 in 10.0 mi ENE 9.2 mph - N/A   Clear
6:15 AM 77.9 °F - 74.3 °F 89% 29.93 in 10.0 mi ENE 11.5 mph - N/A   Scattered Clouds
6:35 AM 77.9 °F - 74.3 °F 89% 29.93 in 10.0 mi ENE 10.4 mph - N/A   Scattered Clouds
6:55 AM 78.1 °F - 74.7 °F 89% 29.93 in 10.0 mi ENE 11.5 mph - N/A   Scattered Clouds
7:15 AM 78.3 °F - 74.7 °F 89% 29.94 in 10.0 mi East 13.8 mph - N/A   Mostly Cloudy
7:35 AM 78.8 °F - 75.0 °F 88% 29.95 in 7.0 mi ENE 9.2 mph - N/A   Mostly Cloudy
7:55 AM 79.3 °F - 75.2 °F 87% 29.96 in 10.0 mi SE 10.4 mph - N/A   Overcast
8:15 AM 79.7 °F - 71.1 °F 75% 29.96 in 10.0 mi ESE 5.8 mph - N/A   Overcast
8:35 AM 82.2 °F 89.1 °F 75.2 °F 79% 29.97 in 10.0 mi ENE 9.2 mph - N/A   Scattered Clouds
8:55 AM 80.8 °F 86.7 °F 75.6 °F 84% 29.98 in 10.0 mi NE 8.1 mph - N/A   Scattered Clouds
9:15 AM 82.8 °F 90.7 °F 75.9 °F 80% 29.98 in 10.0 mi East 6.9 mph - N/A   Overcast
9:35 AM 85.5 °F 95.0 °F 76.1 °F 73% 29.98 in 10.0 mi ESE 17.3 mph 21.9 mph N/A   Mostly Cloudy
9:55 AM 85.5 °F 94.2 °F 75.2 °F 71% 29.99 in 10.0 mi ESE 18.4 mph 25.3 mph N/A   Mostly Cloudy
10:15 AM 86.0 °F 95.5 °F 75.6 °F 71% 29.99 in 10.0 mi ESE 16.1 mph 25.3 mph N/A   Mostly Cloudy
10:35 AM 85.3 °F 94.2 °F 75.2 °F 72% 29.99 in 10.0 mi East 12.7 mph 19.6 mph N/A   Scattered Clouds
10:55 AM 84.4 °F 92.0 °F 74.3 °F 72% 30.00 in 10.0 mi East 18.4 mph - N/A   Scattered Clouds
11:15 AM 84.2 °F 92.3 °F 75.2 °F 74% 30.00 in 10.0 mi ESE 12.7 mph - N/A   Scattered Clouds
11:35 AM 84.6 °F 92.4 °F 74.7 °F 72% 30.00 in 10.0 mi East 16.1 mph 19.6 mph N/A   Mostly Cloudy
11:55 AM 85.3 °F 93.7 °F 74.8 °F 71% 30.00 in 10.0 mi East 10.4 mph - N/A   Scattered Clouds
12:15 PM 87.3 °F 97.2 °F 75.4 °F 68% 30.00 in 10.0 mi East 17.3 mph 23.0 mph N/A   Clear
12:35 PM 87.3 °F 96.3 °F 74.7 °F 66% 30.00 in 10.0 mi ESE 16.1 mph 23.0 mph N/A   Clear
12:55 PM 86.5 °F 95.0 °F 74.3 °F 67% 30.00 in 10.0 mi East 17.3 mph 24.2 mph N/A   Clear
1:15 PM 86.9 °F 95.4 °F 74.1 °F 66% 29.99 in 10.0 mi East 17.3 mph 20.7 mph N/A   Clear
1:35 PM 86.5 °F 94.6 °F 73.8 °F 66% 29.98 in 10.0 mi East 15.0 mph 23.0 mph N/A   Clear
1:55 PM 88.2 °F 97.4 °F 74.5 °F 64% 29.98 in 10.0 mi East 17.3 mph 23.0 mph N/A   Clear
2:15 PM 87.3 °F 95.3 °F 73.9 °F 64% 29.97 in 10.0 mi ESE 17.3 mph 24.2 mph N/A   Clear
2:35 PM 87.4 °F 97.2 °F 75.2 °F 67% 29.96 in 10.0 mi ESE 16.1 mph 23.0 mph N/A   Clear
2:55 PM 88.2 °F 99.0 °F 75.7 °F 67% 29.95 in 10.0 mi ESE 19.6 mph 25.3 mph N/A   Clear
3:15 PM 88.5 °F 100.5 °F 76.6 °F 68% 29.95 in 10.0 mi ESE 19.6 mph 24.2 mph N/A   Clear
3:35 PM 87.3 °F 97.7 °F 76.1 °F 69% 29.95 in 10.0 mi East 17.3 mph 25.3 mph N/A   Clear
3:55 PM 86.7 °F 95.5 °F 74.7 °F 67% 29.94 in 10.0 mi ESE 20.7 mph 26.5 mph N/A   Clear
4:15 PM 86.5 °F 96.4 °F 75.7 °F 70% 29.93 in 10.0 mi ESE 17.3 mph 20.7 mph N/A   Clear
4:35 PM 87.3 °F 97.2 °F 75.7 °F 68% 29.93 in 10.0 mi ESE 20.7 mph - N/A   Clear
4:55 PM 87.3 °F 97.2 °F 75.7 °F 68% 29.93 in 10.0 mi ESE 19.6 mph 25.3 mph N/A   Clear
5:15 PM 86.7 °F 96.9 °F 75.9 °F 70% 29.93 in 10.0 mi ESE 20.7 mph 24.2 mph N/A   Clear
5:35 PM 86.4 °F 96.0 °F 75.7 °F 70% 29.93 in 10.0 mi ESE 16.1 mph 23.0 mph N/A   Clear
5:55 PM 85.5 °F 94.6 °F 75.6 °F 72% 29.93 in 10.0 mi East 15.0 mph 19.6 mph N/A   Clear
6:15 PM 84.9 °F 93.7 °F 75.4 °F 73% 29.93 in 10.0 mi ESE 17.3 mph - N/A   Scattered Clouds
6:35 PM 84.2 °F 91.9 °F 74.7 °F 73% 29.93 in 10.0 mi East 13.8 mph 24.2 mph N/A   Scattered Clouds
6:55 PM 83.8 °F 92.1 °F 75.4 °F 76% 29.94 in 10.0 mi ESE 15.0 mph 21.9 mph N/A   Scattered Clouds
7:15 PM 83.5 °F 90.6 °F 74.5 °F 74% 29.94 in 10.0 mi East 11.5 mph 19.6 mph N/A   Scattered Clouds
7:35 PM 83.1 °F 90.7 °F 75.4 °F 77% 29.95 in 10.0 mi East 13.8 mph 19.6 mph N/A   Clear
7:55 PM 83.1 °F 90.7 °F 75.4 °F 77% 29.95 in 10.0 mi East 15.0 mph 20.7 mph N/A   Scattered Clouds
8:15 PM 82.9 °F 89.9 °F 74.8 °F 76% 29.95 in 10.0 mi East 10.4 mph 20.7 mph N/A   Clear
8:35 PM 82.8 °F 90.1 °F 75.2 °F 78% 29.96 in 10.0 mi East 13.8 mph 18.4 mph N/A   Clear
8:55 PM 82.6 °F 89.9 °F 75.6 °F 79% 29.97 in 10.0 mi East 11.5 mph - N/A   Scattered Clouds
9:15 PM 82.4 °F 89.8 °F 75.6 °F 80% 29.97 in 10.0 mi East 10.4 mph - N/A   Scattered Clouds
9:35 PM 81.9 °F 88.5 °F 75.2 °F 80% 29.98 in 10.0 mi East 11.5 mph - N/A   Clear
9:55 PM 81.9 °F 88.7 °F 75.4 °F 81% 29.98 in 10.0 mi East 11.5 mph - N/A   Clear
10:15 PM 81.9 °F 88.5 °F 75.2 °F 80% 29.99 in 10.0 mi East 10.4 mph - N/A   Clear
10:35 PM 81.9 °F 88.7 °F 75.6 °F 81% 29.99 in 10.0 mi East 9.2 mph - N/A   Clear
10:55 PM 81.7 °F 88.3 °F 75.4 °F 81% 29.98 in 10.0 mi East 10.4 mph - N/A   Clear
11:15 PM 81.5 °F 87.8 °F 75.2 °F 81% 29.98 in 10.0 mi East 5.8 mph - N/A   Clear
11:35 PM 80.6 °F 86.2 °F 75.4 °F 84% 29.98 in 10.0 mi ENE 8.1 mph - N/A   Clear
11:55 PM 80.6 °F 86.2 °F 75.2 °F 84% 29.99 in 10.0 mi ENE 8.1 mph - N/A   Clear